Location: Huesca
(42.1318°N, 0.4078°W)
Time: 11:19:35
(UTC+01:00)

O/OREOS (USA 219) - Pass Details

Date: 15 November 2024
Orbit: 590 x 609 km, 72.0° (Epoch: 06 December)

Event Time Altitude Azimuth Distance (km) Brightness Sun altitude
Rises 18:23:29 0° 187° (S) 2,819 ? -8.4°
Reaches altitude 10° 18:25:46 10° 181° (S) 1,919 ? -8.8°
Maximum altitude 18:29:53 47° 107° (ESE) 787 ? -9.5°
Drops below altitude 10° 18:34:01 10° 34° (NE) 1,926 ? -10.2°
Enters shadow 18:34:46 - 32° (NNE) 2,219 ? -10.4°
